Location: Ar Ranvel
(48.3000°N, 4.8833°W)
Time: 16:36:26
(UTC+00:00)

Cosmos 1741 Rocket - Pass Details

Date: 16 June 2021
Orbit: 761 x 783 km, 74.0° (Epoch: 31 July)

Event Time Altitude Azimuth Distance (km) Brightness Sun altitude
Rises 21:34:58 0° 336° (NNW) 3,246 9.1 -9.3°
Reaches altitude 10° 21:37:21 10° 336° (NNW) 2,318 8.0 -9.6°
Maximum altitude 21:42:37 83° 249° (WSW) 783 4.1 -10.1°
Enters shadow 21:47:26 12° 162° (SSE) 2,146 5.7 -10.6°
